| time (UTC) | temp F | wind direction | speed MPH | gust MPH | rain 1hr in | rain 24hr in | rain mn in | humidity % | barometer mb |
| 20260906161016 | 75 | 90 | 1.0 | 4.0 | 0.00 | 0.00 | 0.00 | 85 | 1020.1 |
| 20260906160516 | 74 | 90 | 2.0 | 5.0 | 0.00 | 0.00 | 0.00 | 85 | 1020.1 |
| 20260906160036 | 74 | 135 | 2.0 | 5.0 | 0.00 | 0.00 | 0.00 | 86 | 1020.0 |
| 20260906155516 | 74 | 0.0 | 3.0 | 0.00 | 0.00 | 0.00 | 85 | 1020.1 | |
| 20260906155016 | 74 | 68 | 1.0 | 4.0 | 0.00 | 0.00 | 0.00 | 86 | 1020.1 |
| 20260906154516 | 74 | 180 | 1.0 | 2.0 | 0.00 | 0.00 | 0.00 | 87 | 1020.3 |
| 20260906154016 | 74 | 225 | 1.0 | 3.0 | 0.00 | 0.00 | 0.00 | 87 | 1020.1 |
| 20260906153536 | 74 | 90 | 1.0 | 3.0 | 0.00 | 0.00 | 0.00 | 87 | 1020.0 |
| 20260906153016 | 73 | 0.0 | 1.0 | 0.00 | 0.00 | 0.00 | 88 | 1020.0 | |
| 20260906152516 | 73 | 0.0 | 3.0 | 0.00 | 0.00 | 0.00 | 89 | 1019.9 | |
| 20260906152016 | 73 | 113 | 1.0 | 4.0 | 0.00 | 0.00 | 0.00 | 89 | 1019.9 |
| 20260906151516 | 73 | 135 | 1.0 | 3.0 | 0.00 | 0.00 | 0.00 | 89 | 1019.9 |
| 20260906151016 | 73 | 0.0 | 4.0 | 0.00 | 0.00 | 0.00 | 89 | 1020.0 | |
| 20260906150516 | 72 | 158 | 1.0 | 3.0 | 0.00 | 0.00 | 0.00 | 89 | 1019.9 |
| 20260906150016 | 72 | 0.0 | 2.0 | 0.00 | 0.00 | 0.00 | 90 | 1019.8 | |
| 20260906145516 | 72 | 90 | 1.0 | 6.0 | 0.00 | 0.00 | 0.00 | 90 | 1019.7 |
| 20260906145016 | 72 | 113 | 1.0 | 5.0 | 0.00 | 0.00 | 0.00 | 90 | 1019.8 |
| 20260906144516 | 72 | 113 | 1.0 | 5.0 | 0.00 | 0.00 | 0.00 | 90 | 1019.8 |
| 20260906144016 | 72 | 0.0 | 3.0 | 0.00 | 0.00 | 0.00 | 90 | 1019.7 | |
| 20260906143516 | 72 | 0.0 | 2.0 | 0.00 | 0.00 | 0.00 | 90 | 1019.8 | |
| 20260906143016 | 71 | 90 | 1.0 | 4.0 | 0.00 | 0.00 | 0.00 | 90 | 1019.7 |
| 20260906142516 | 71 | 68 | 1.0 | 6.0 | 0.00 | 0.00 | 0.00 | 91 | 1019.6 |
| 20260906142036 | 71 | 90 | 2.0 | 8.0 | 0.00 | 0.00 | 0.00 | 90 | 1019.7 |
| 20260906141516 | 71 | 90 | 1.0 | 6.0 | 0.00 | 0.00 | 0.00 | 91 | 1019.6 |
| 20260906141016 | 71 | 90 | 1.0 | 4.0 | 0.00 | 0.00 | 0.00 | 91 | 1019.5 |
| 20260906140516 | 71 | 90 | 2.0 | 9.0 | 0.00 | 0.00 | 0.00 | 90 | 1019.6 |
| 20260906140016 | 71 | 0.0 | 4.0 | 0.00 | 0.00 | 0.00 | 91 | 1019.5 | |
| 20260906135516 | 71 | 0.0 | 4.0 | 0.00 | 0.00 | 0.00 | 90 | 1019.5 | |
| 20260906135036 | 71 | 0.0 | 4.0 | 0.00 | 0.00 | 0.00 | 91 | 1019.6 | |
| 20260906134536 | 71 | 90 | 1.0 | 5.0 | 0.00 | 0.00 | 0.00 | 91 | 1019.6 |
| 20260906134016 | 71 | 0.0 | 2.0 | 0.00 | 0.00 | 0.00 | 91 | 1019.5 | |
| 20260906133536 | 71 | 0.0 | 2.0 | 0.00 | 0.00 | 0.00 | 91 | 1019.4 | |
| 20260906133016 | 71 | 0.0 | 4.0 | 0.00 | 0.00 | 0.00 | 91 | 1019.4 | |
| 20260906132516 | 71 | 90 | 2.0 | 6.0 | 0.00 | 0.00 | 0.00 | 90 | 1019.4 |
| 20260906132016 | 71 | 90 | 1.0 | 4.0 | 0.00 | 0.00 | 0.00 | 90 | 1019.3 |
| 20260906131536 | 71 | 90 | 1.0 | 6.0 | 0.00 | 0.00 | 0.00 | 90 | 1019.3 |
| 20260906131016 | 71 | 90 | 1.0 | 5.0 | 0.00 | 0.00 | 0.00 | 91 | 1019.3 |
| 20260906130516 | 70 | 90 | 1.0 | 4.0 | 0.00 | 0.00 | 0.00 | 92 | 1019.2 |
| 20260906130016 | 70 | 68 | 1.0 | 6.0 | 0.00 | 0.00 | 0.00 | 92 | 1019.1 |
| 20260906125516 | 70 | 45 | 1.0 | 7.0 | 0.00 | 0.00 | 0.00 | 92 | 1018.9 |
| 20260906125016 | 70 | 68 | 1.0 | 3.0 | 0.00 | 0.00 | 0.00 | 92 | 1019.0 |
| 20260906124516 | 70 | 0.0 | 2.0 | 0.00 | 0.00 | 0.00 | 93 | 1019.0 | |
| 20260906124016 | 69 | 0.0 | 2.0 | 0.00 | 0.00 | 0.00 | 93 | 1019.0 | |
| 20260906123516 | 69 | 90 | 1.0 | 4.0 | 0.00 | 0.00 | 0.00 | 94 | 1019.0 |
| 20260906123016 | 68 | 90 | 1.0 | 3.0 | 0.00 | 0.00 | 0.00 | 94 | 1019.0 |
| 20260906122536 | 68 | 0.0 | 1.0 | 0.00 | 0.00 | 0.00 | 95 | 1018.9 | |
| 20260906122036 | 68 | 0.0 | 2.0 | 0.00 | 0.00 | 0.00 | 95 | 1018.8 | |
| 20260906121536 | 68 | 0.0 | 2.0 | 0.00 | 0.00 | 0.00 | 95 | 1018.8 | |
| 20260906121016 | 68 | 0.0 | 2.0 | 0.00 | 0.00 | 0.00 | 95 | 1018.9 | |
| 20260906120536 | 68 | 90 | 1.0 | 3.0 | 0.00 | 0.00 | 0.00 | 95 | 1018.9 |
| 20260906120016 | 68 | 0.0 | 2.0 | 0.00 | 0.00 | 0.00 | 95 | 1018.8 | |
| 20260906115516 | 68 | 0.0 | 2.0 | 0.00 | 0.00 | 0.00 | 95 | 1018.6 | |
| 20260906115016 | 68 | 90 | 1.0 | 3.0 | 0.00 | 0.00 | 0.00 | 95 | 1018.5 |
| 20260906114516 | 68 | 0.0 | 3.0 | 0.00 | 0.00 | 0.00 | 95 | 1018.5 | |
| 20260906114056 | 68 | 0.0 | 3.0 | 0.00 | 0.00 | 0.00 | 95 | 1018.5 | |
| 20260906113516 | 68 | 90 | 1.0 | 3.0 | 0.00 | 0.00 | 0.00 | 95 | 1018.3 |
| 20260906113016 | 68 | 0.0 | 3.0 | 0.00 | 0.00 | 0.00 | 95 | 1018.3 | |
| 20260906112516 | 68 | 0.0 | 2.0 | 0.00 | 0.00 | 0.00 | 95 | 1018.3 | |
| 20260906112036 | 68 | 0.0 | 2.0 | 0.00 | 0.00 | 0.00 | 95 | 1018.4 | |
| 20260906111515 | 68 | 90 | 1.0 | 4.0 | 0.00 | 0.00 | 0.00 | 95 | 1018.5 |
| 20260906111015 | 68 | 0.0 | 2.0 | 0.00 | 0.00 | 0.00 | 95 | 1018.5 | |
| 20260906110516 | 69 | 0.0 | 2.0 | 0.00 | 0.00 | 0.00 | 95 | 1018.4 | |
| 20260906110016 | 69 | 0.0 | 3.0 | 0.00 | 0.00 | 0.00 | 95 | 1018.4 | |
| 20260906105515 | 69 | 0.0 | 1.0 | 0.00 | 0.00 | 0.00 | 95 | 1018.4 | |
| 20260906105036 | 69 | 0.0 | 1.0 | 0.00 | 0.00 | 0.00 | 94 | 1018.4 | |
| 20260906104515 | 69 | 0.0 | 2.0 | 0.00 | 0.00 | 0.00 | 94 | 1018.3 | |
| 20260906104016 | 69 | 90 | 1.0 | 3.0 | 0.00 | 0.00 | 0.00 | 94 | 1018.5 |
| 20260906103536 | 69 | 90 | 1.0 | 3.0 | 0.00 | 0.00 | 0.00 | 94 | 1018.4 |
| 20260906103016 | 69 | 68 | 1.0 | 4.0 | 0.00 | 0.00 | 0.00 | 94 | 1018.2 |
| 20260906102535 | 69 | 68 | 1.0 | 3.0 | 0.00 | 0.00 | 0.00 | 94 | 1018.3 |
| 20260906102015 | 69 | 0.0 | 4.0 | 0.00 | 0.00 | 0.00 | 94 | 1018.2 | |
| 20260906101535 | 69 | 0.0 | 2.0 | 0.00 | 0.00 | 0.00 | 94 | 1018.2 | |
| 20260906101015 | 69 | 0.0 | 1.0 | 0.00 | 0.00 | 0.00 | 94 | 1018.1 | |
| 20260906100516 | 69 | 0.0 | 3.0 | 0.00 | 0.00 | 0.00 | 94 | 1018.1 | |
| 20260906100016 | 69 | 0.0 | 5.0 | 0.00 | 0.00 | 0.00 | 94 | 1018.1 | |
| 20260906095515 | 70 | 0.0 | 2.0 | 0.00 | 0.00 | 0.00 | 94 | 1017.9 | |
| 20260906095015 | 70 | 0.0 | 1.0 | 0.00 | 0.00 | 0.00 | 94 | 1017.8 | |
| 20260906094515 | 70 | 0.0 | 1.0 | 0.00 | 0.00 | 0.00 | 94 | 1017.8 | |
| 20260906094016 | 70 | 0.0 | 2.0 | 0.00 | 0.00 | 0.00 | 94 | 1017.8 | |
| 20260906093515 | 70 | 90 | 1.0 | 7.0 | 0.00 | 0.00 | 0.00 | 94 | 1017.7 |
| 20260906093016 | 70 | 90 | 1.0 | 6.0 | 0.00 | 0.00 | 0.00 | 94 | 1017.6 |
| 20260906092516 | 70 | 0.0 | 3.0 | 0.00 | 0.00 | 0.00 | 94 | 1017.6 | |
| 20260906092015 | 70 | 90 | 1.0 | 3.0 | 0.00 | 0.00 | 0.00 | 94 | 1017.6 |
| 20260906091555 | 71 | 90 | 1.0 | 5.0 | 0.00 | 0.00 | 0.00 | 94 | 1017.6 |
| 20260906091016 | 71 | 0.0 | 2.0 | 0.00 | 0.00 | 0.00 | 94 | 1017.6 | |
| 20260906090515 | 71 | 0.0 | 1.0 | 0.00 | 0.00 | 0.00 | 93 | 1017.5 | |
| 20260906090015 | 71 | 0.0 | 2.0 | 0.00 | 0.00 | 0.00 | 93 | 1017.5 | |
| 20260906085516 | 71 | 90 | 1.0 | 4.0 | 0.00 | 0.00 | 0.00 | 93 | 1017.5 |
| 20260906085015 | 72 | 113 | 1.0 | 5.0 | 0.00 | 0.00 | 0.00 | 93 | 1017.4 |
| 20260906084515 | 72 | 90 | 1.0 | 4.0 | 0.00 | 0.00 | 0.00 | 93 | 1017.6 |
| 20260906084035 | 72 | 90 | 1.0 | 3.0 | 0.00 | 0.00 | 0.00 | 93 | 1017.5 |
| 20260906083535 | 72 | 113 | 1.0 | 6.0 | 0.00 | 0.00 | 0.00 | 93 | 1017.5 |
| 20260906083015 | 72 | 90 | 1.0 | 2.0 | 0.00 | 0.00 | 0.00 | 93 | 1017.6 |
| 20260906082515 | 72 | 90 | 1.0 | 7.0 | 0.00 | 0.00 | 0.00 | 93 | 1017.5 |
| 20260906082035 | 72 | 68 | 1.0 | 6.0 | 0.00 | 0.00 | 0.00 | 93 | 1017.6 |
| 20260906081515 | 72 | 90 | 2.0 | 8.0 | 0.00 | 0.00 | 0.00 | 93 | 1017.6 |
| 20260906081015 | 72 | 90 | 1.0 | 7.0 | 0.00 | 0.00 | 0.00 | 93 | 1017.6 |
| 20260906080515 | 72 | 90 | 1.0 | 4.0 | 0.00 | 0.00 | 0.00 | 93 | 1017.8 |
| 20260906080015 | 72 | 0.0 | 2.0 | 0.00 | 0.00 | 0.00 | 93 | 1017.8 | |
| 20260906075515 | 72 | 0.0 | 3.0 | 0.00 | 0.00 | 0.00 | 93 | 1017.6 | |
| 20260906075015 | 72 | 90 | 1.0 | 4.0 | 0.00 | 0.00 | 0.00 | 93 | 1017.8 |
| 20260906074515 | 72 | 0.0 | 2.0 | 0.00 | 0.00 | 0.00 | 93 | 1017.9 | |
| 20260906074015 | 72 | 0.0 | 2.0 | 0.00 | 0.00 | 0.00 | 93 | 1017.7 | |
| 20260906073515 | 72 | 68 | 1.0 | 3.0 | 0.00 | 0.00 | 0.00 | 93 | 1017.8 |
| 20260906073035 | 72 | 90 | 1.0 | 3.0 | 0.00 | 0.00 | 0.00 | 93 | 1017.8 |
| 20260906072515 | 72 | 0.0 | 2.0 | 0.00 | 0.00 | 0.00 | 93 | 1017.8 | |
| 20260906072015 | 72 | 68 | 1.0 | 4.0 | 0.00 | 0.00 | 0.00 | 92 | 1018.0 |
| 20260906071515 | 72 | 0.0 | 3.0 | 0.00 | 0.00 | 0.00 | 92 | 1018.0 | |
| 20260906071017 | 72 | 45 | 1.0 | 7.0 | 0.00 | 0.00 | 0.00 | 92 | 1018.1 |
| 20260906070517 | 72 | 68 | 1.0 | 7.0 | 0.00 | 0.00 | 0.00 | 92 | 1018.1 |
| 20260906070017 | 72 | 0.0 | 2.0 | 0.00 | 0.00 | 0.00 | 92 | 1018.1 | |
| 20260906065517 | 72 | 68 | 1.0 | 4.0 | 0.00 | 0.00 | 0.00 | 92 | 1018.1 |
| 20260906065037 | 72 | 0.0 | 3.0 | 0.00 | 0.00 | 0.00 | 92 | 1018.2 | |
| 20260906064517 | 73 | 0.0 | 2.0 | 0.00 | 0.00 | 0.00 | 92 | 1018.1 | |
| 20260906064017 | 73 | 45 | 1.0 | 5.0 | 0.00 | 0.00 | 0.00 | 92 | 1018.1 |
| 20260906063517 | 73 | 68 | 1.0 | 4.0 | 0.00 | 0.00 | 0.00 | 92 | 1018.2 |
| 20260906063017 | 73 | 0.0 | 3.0 | 0.00 | 0.00 | 0.00 | 92 | 1018.2 | |
| 20260906062517 | 73 | 0.0 | 4.0 | 0.00 | 0.00 | 0.00 | 92 | 1018.2 | |
| 20260906062017 | 73 | 0.0 | 4.0 | 0.00 | 0.00 | 0.00 | 92 | 1018.2 | |
| 20260906061517 | 73 | 0.0 | 2.0 | 0.00 | 0.00 | 0.00 | 92 | 1018.1 | |
| 20260906061017 | 73 | 0.0 | 1.0 | 0.00 | 0.00 | 0.00 | 92 | 1018.0 | |
| 20260906060537 | 73 | 0.0 | 1.0 | 0.00 | 0.00 | 0.00 | 92 | 1018.0 | |
| 20260906060017 | 73 | 0.0 | 1.0 | 0.00 | 0.00 | 0.00 | 92 | 1017.9 | |
| 20260906055517 | 73 | 0.0 | 2.0 | 0.00 | 0.00 | 0.00 | 92 | 1018.0 | |
| 20260906055017 | 73 | 0.0 | 3.0 | 0.00 | 0.00 | 0.00 | 92 | 1018.0 | |
| 20260906054517 | 73 | 0.0 | 2.0 | 0.00 | 0.00 | 0.00 | 92 | 1017.8 | |
| 20260906054017 | 73 | 0.0 | 2.0 | 0.00 | 0.00 | 0.00 | 92 | 1017.9 | |
| 20260906053517 | 73 | 45 | 1.0 | 3.0 | 0.00 | 0.00 | 0.00 | 92 | 1017.8 |
| 20260906053017 | 73 | 0.0 | 3.0 | 0.00 | 0.00 | 0.00 | 92 | 1017.8 | |
| 20260906052517 | 73 | 0.0 | 2.0 | 0.00 | 0.00 | 0.00 | 92 | 1017.7 | |
| 20260906052017 | 73 | 45 | 1.0 | 4.0 | 0.00 | 0.00 | 0.00 | 92 | 1017.9 |
| 20260906051517 | 74 | 68 | 1.0 | 5.0 | 0.00 | 0.00 | 0.00 | 92 | 1017.7 |
| 20260906051037 | 74 | 45 | 1.0 | 4.0 | 0.00 | 0.00 | 0.00 | 91 | 1017.6 |
| 20260906050537 | 74 | 0.0 | 2.0 | 0.00 | 0.00 | 0.00 | 91 | 1017.8 | |
| 20260906050017 | 74 | 0.0 | 2.0 | 0.00 | 0.00 | 0.00 | 91 | 1017.5 | |
| 20260906045515 | 74 | 45 | 1.0 | 3.0 | 0.00 | 0.00 | 0.00 | 91 | 1017.7 |
| 20260906045015 | 74 | 45 | 1.0 | 4.0 | 0.00 | 0.00 | 0.00 | 91 | 1017.7 |
| 20260906044516 | 74 | 45 | 2.0 | 4.0 | 0.00 | 0.00 | 0.00 | 90 | 1017.8 |
| 20260906044015 | 74 | 45 | 1.0 | 5.0 | 0.00 | 0.00 | 0.00 | 90 | 1017.8 |
| 20260906043517 | 74 | 68 | 1.0 | 3.0 | 0.00 | 0.00 | 0.00 | 90 | 1017.7 |
| 20260906043017 | 74 | 45 | 1.0 | 4.0 | 0.00 | 0.00 | 0.00 | 90 | 1017.6 |
| 20260906042517 | 74 | 45 | 2.0 | 5.0 | 0.00 | 0.00 | 0.00 | 90 | 1017.8 |
| 20260906042037 | 74 | 45 | 2.0 | 4.0 | 0.00 | 0.00 | 0.00 | 89 | 1017.7 |
| 20260906041517 | 75 | 23 | 1.0 | 2.0 | 0.00 | 0.00 | 0.00 | 89 | 1017.6 |
| 20260906041017 | 75 | 0.0 | 3.0 | 0.00 | 0.00 | 0.00 | 89 | 1017.6 | |
| 20260906040517 | 75 | 0.0 | 0.0 | 0.00 | 0.00 | 0.00 | 89 | 1017.5 | |
| 20260906040017 | 75 | 0.0 | 0.0 | 0.00 | 0.00 | 0.00 | 89 | 1017.4 | |
| 20260906035537 | 75 | 0.0 | 2.0 | 0.00 | 0.00 | 0.00 | 89 | 1017.3 | |
| 20260906035017 | 75 | 0.0 | 3.0 | 0.00 | 0.00 | 0.00 | 89 | 1017.3 | |
| 20260906034515 | 75 | 68 | 1.0 | 3.0 | 0.00 | 0.00 | 0.00 | 89 | 1017.4 |
| 20260906034017 | 75 | 45 | 1.0 | 4.0 | 0.00 | 0.00 | 0.00 | 89 | 1017.4 |
| 20260906033517 | 75 | 68 | 1.0 | 3.0 | 0.00 | 0.00 | 0.00 | 88 | 1017.3 |
| 20260906033017 | 75 | 68 | 1.0 | 3.0 | 0.00 | 0.00 | 0.00 | 88 | 1017.1 |
| 20260906032517 | 75 | 45 | 1.0 | 5.0 | 0.00 | 0.00 | 0.00 | 88 | 1017.2 |
| 20260906032017 | 75 | 68 | 1.0 | 5.0 | 0.00 | 0.00 | 0.00 | 88 | 1017.2 |
| 20260906031517 | 75 | 68 | 1.0 | 4.0 | 0.00 | 0.00 | 0.00 | 88 | 1017.2 |
| 20260906031017 | 76 | 45 | 2.0 | 5.0 | 0.00 | 0.00 | 0.00 | 88 | 1017.2 |
| 20260906030517 | 76 | 0.0 | 2.0 | 0.00 | 0.00 | 0.00 | 88 | 1017.2 | |
| 20260906030017 | 76 | 23 | 1.0 | 4.0 | 0.00 | 0.00 | 0.00 | 88 | 1017.2 |
| 20260906025557 | 76 | 23 | 1.0 | 3.0 | 0.00 | 0.00 | 0.00 | 88 | 1017.1 |
| 20260906025017 | 76 | 68 | 1.0 | 3.0 | 0.00 | 0.00 | 0.00 | 88 | 1017.1 |
| 20260906024517 | 76 | 68 | 1.0 | 2.0 | 0.00 | 0.00 | 0.00 | 87 | 1016.9 |
| 20260906024017 | 76 | 45 | 1.0 | 5.0 | 0.00 | 0.00 | 0.00 | 87 | 1016.7 |
| 20260906023517 | 76 | 68 | 1.0 | 4.0 | 0.00 | 0.00 | 0.00 | 87 | 1016.5 |
| 20260906023037 | 77 | 45 | 1.0 | 3.0 | 0.00 | 0.00 | 0.00 | 87 | 1016.5 |
| 20260906022537 | 77 | 45 | 2.0 | 4.0 | 0.00 | 0.00 | 0.00 | 86 | 1016.4 |
| 20260906022017 | 77 | 68 | 1.0 | 6.0 | 0.00 | 0.00 | 0.00 | 86 | 1016.5 |
| 20260906021517 | 77 | 68 | 1.0 | 4.0 | 0.00 | 0.00 | 0.00 | 86 | 1016.3 |
| 20260906021037 | 77 | 68 | 1.0 | 6.0 | 0.00 | 0.00 | 0.00 | 86 | 1016.1 |
| 20260906020517 | 77 | 45 | 2.0 | 5.0 | 0.00 | 0.00 | 0.00 | 86 | 1016.0 |
| 20260906020017 | 77 | 45 | 1.0 | 5.0 | 0.00 | 0.00 | 0.00 | 87 | 1015.9 |
| 20260906015557 | 77 | 68 | 1.0 | 4.0 | 0.00 | 0.00 | 0.00 | 87 | 1015.8 |
| 20260906015017 | 77 | 0.0 | 2.0 | 0.00 | 0.00 | 0.00 | 87 | 1015.7 | |
| 20260906014517 | 77 | 0.0 | 4.0 | 0.00 | 0.00 | 0.00 | 87 | 1015.7 | |
| 20260906014017 | 78 | 0.0 | 2.0 | 0.00 | 0.00 | 0.00 | 86 | 1015.6 | |
| 20260906013517 | 78 | 45 | 1.0 | 5.0 | 0.00 | 0.00 | 0.00 | 86 | 1015.6 |
| 20260906013017 | 78 | 68 | 1.0 | 4.0 | 0.00 | 0.00 | 0.00 | 86 | 1015.6 |
| 20260906012517 | 78 | 68 | 2.0 | 5.0 | 0.00 | 0.00 | 0.00 | 86 | 1015.5 |
| 20260906012017 | 78 | 68 | 2.0 | 4.0 | 0.00 | 0.00 | 0.00 | 86 | 1015.6 |
| 20260906011517 | 78 | 68 | 1.0 | 4.0 | 0.00 | 0.00 | 0.00 | 85 | 1015.5 |
| 20260906011017 | 79 | 90 | 2.0 | 7.0 | 0.00 | 0.00 | 0.00 | 85 | 1015.5 |
| 20260906010517 | 79 | 90 | 1.0 | 7.0 | 0.00 | 0.00 | 0.00 | 85 | 1015.4 |
| 20260906010017 | 79 | 68 | 2.0 | 4.0 | 0.00 | 0.00 | 0.00 | 84 | 1015.4 |
| 20260906005517 | 79 | 68 | 1.0 | 5.0 | 0.00 | 0.00 | 0.00 | 84 | 1015.5 |
| 20260906005017 | 79 | 68 | 1.0 | 5.0 | 0.00 | 0.00 | 0.00 | 84 | 1015.4 |
| 20260906004517 | 79 | 0.0 | 1.0 | 0.00 | 0.00 | 0.00 | 84 | 1015.4 | |
| 20260906004017 | 79 | 0.0 | 2.0 | 0.00 | 0.00 | 0.00 | 83 | 1015.3 | |
| 20260906003517 | 79 | 90 | 1.0 | 3.0 | 0.00 | 0.00 | 0.00 | 83 | 1015.2 |
| 20260906003017 | 79 | 0.0 | 1.0 | 0.00 | 0.00 | 0.00 | 83 | 1015.1 | |
| 20260906002517 | 80 | 90 | 1.0 | 2.0 | 0.00 | 0.00 | 0.00 | 83 | 1015.2 |
| 20260906002017 | 80 | 0.0 | 2.0 | 0.00 | 0.00 | 0.00 | 82 | 1015.2 | |
| 20260906001537 | 80 | 45 | 1.0 | 4.0 | 0.00 | 0.00 | 0.00 | 82 | 1015.2 |
| 20260906001017 | 80 | 45 | 1.0 | 4.0 | 0.00 | 0.00 | 0.00 | 82 | 1015.2 |
| 20260906000517 | 80 | 45 | 1.0 | 5.0 | 0.00 | 0.00 | 0.00 | 82 | 1015.1 |
| 20260906000017 | 80 | 90 | 1.0 | 3.0 | 0.00 | 0.00 | 0.00 | 81 | 1015.2 |
| 20260905235517 | 81 | 45 | 1.0 | 2.0 | 0.00 | 0.00 | 0.00 | 81 | 1015.3 |
| 20260905235017 | 81 | 68 | 2.0 | 6.0 | 0.00 | 0.00 | 0.00 | 81 | 1015.3 |
| 20260905234517 | 81 | 45 | 3.0 | 10.0 | 0.00 | 0.00 | 0.00 | 81 | 1015.2 |
| 20260905234017 | 81 | 45 | 2.0 | 7.0 | 0.00 | 0.00 | 0.00 | 81 | 1015.1 |
| 20260905233517 | 81 | 68 | 3.0 | 6.0 | 0.00 | 0.00 | 0.00 | 80 | 1015.1 |
| 20260905233017 | 82 | 45 | 2.0 | 5.0 | 0.00 | 0.00 | 0.00 | 80 | 1015.1 |
| 20260905232517 | 82 | 68 | 5.0 | 11.0 | 0.00 | 0.00 | 0.00 | 79 | 1015.1 |
| 20260905232017 | 82 | 45 | 4.0 | 9.0 | 0.00 | 0.00 | 0.00 | 79 | 1015.0 |
| 20260905231517 | 83 | 68 | 4.0 | 8.0 | 0.00 | 0.00 | 0.00 | 78 | 1015.1 |
| 20260905231017 | 83 | 68 | 3.0 | 8.0 | 0.00 | 0.00 | 0.00 | 79 | 1015.1 |
| 20260905230537 | 83 | 68 | 4.0 | 10.0 | 0.00 | 0.00 | 0.00 | 79 | 1015.1 |
| 20260905230017 | 84 | 45 | 5.0 | 10.0 | 0.00 | 0.00 | 0.00 | 79 | 1015.1 |
| 20260905225516 | 84 | 45 | 4.0 | 8.0 | 0.00 | 0.00 | 0.00 | 79 | 1015.0 |
| 20260905225017 | 84 | 45 | 5.0 | 10.0 | 0.00 | 0.00 | 0.00 | 78 | 1015.0 |
| 20260905224517 | 84 | 45 | 5.0 | 11.0 | 0.00 | 0.00 | 0.00 | 78 | 1014.8 |
| 20260905224017 | 84 | 45 | 6.0 | 11.0 | 0.00 | 0.00 | 0.00 | 78 | 1015.0 |
| 20260905223516 | 85 | 45 | 6.0 | 13.0 | 0.00 | 0.00 | 0.00 | 79 | 1014.9 |
| 20260905223037 | 85 | 45 | 4.0 | 12.0 | 0.00 | 0.00 | 0.00 | 78 | 1014.8 |
| 20260905222517 | 85 | 68 | 5.0 | 11.0 | 0.00 | 0.00 | 0.00 | 78 | 1014.9 |
| 20260905222017 | 86 | 45 | 5.0 | 10.0 | 0.00 | 0.00 | 0.00 | 78 | 1014.8 |
| 20260905221517 | 86 | 45 | 4.0 | 10.0 | 0.00 | 0.00 | 0.00 | 78 | 1014.8 |
| 20260905221017 | 86 | 45 | 4.0 | 8.0 | 0.00 | 0.00 | 0.00 | 78 | 1014.9 |
| 20260905220517 | 86 | 45 | 6.0 | 12.0 | 0.00 | 0.00 | 0.00 | 78 | 1014.9 |
| 20260905220017 | 86 | 45 | 4.0 | 9.0 | 0.00 | 0.00 | 0.00 | 79 | 1014.8 |
| 20260905215517 | 86 | 45 | 4.0 | 9.0 | 0.00 | 0.00 | 0.00 | 78 | 1014.8 |
| 20260905215017 | 86 | 68 | 6.0 | 15.0 | 0.00 | 0.00 | 0.00 | 78 | 1014.8 |
| 20260905214516 | 87 | 23 | 6.0 | 15.0 | 0.00 | 0.00 | 0.00 | 77 | 1014.9 |
| 20260905214017 | 87 | 45 | 5.0 | 12.0 | 0.00 | 0.00 | 0.00 | 77 | 1015.0 |
| 20260905213516 | 88 | 45 | 5.0 | 11.0 | 0.00 | 0.00 | 0.00 | 76 | 1015.0 |
| 20260905213017 | 88 | 45 | 4.0 | 9.0 | 0.00 | 0.00 | 0.00 | 77 | 1014.9 |
| 20260905212517 | 88 | 45 | 4.0 | 7.0 | 0.00 | 0.00 | 0.00 | 76 | 1015.0 |
| 20260905212017 | 88 | 68 | 4.0 | 12.0 | 0.00 | 0.00 | 0.00 | 75 | 1014.9 |
| 20260905211517 | 88 | 45 | 3.0 | 6.0 | 0.00 | 0.00 | 0.00 | 74 | 1015.0 |
| 20260905211016 | 89 | 45 | 5.0 | 13.0 | 0.00 | 0.00 | 0.00 | 74 | 1015.0 |
| 20260905210537 | 89 | 23 | 4.0 | 9.0 | 0.00 | 0.00 | 0.00 | 74 | 1015.0 |
| 20260905210016 | 89 | 23 | 4.0 | 10.0 | 0.00 | 0.00 | 0.00 | 75 | 1015.1 |
| 20260905205517 | 89 | 45 | 5.0 | 10.0 | 0.00 | 0.00 | 0.00 | 75 | 1015.1 |
| 20260905205016 | 89 | 23 | 4.0 | 9.0 | 0.00 | 0.00 | 0.00 | 75 | 1015.1 |
| 20260905204517 | 89 | 23 | 4.0 | 8.0 | 0.00 | 0.00 | 0.00 | 75 | 1014.9 |
| 20260905204036 | 88 | 45 | 5.0 | 8.0 | 0.00 | 0.00 | 0.00 | 75 | 1015.0 |
| 20260905203537 | 89 | 23 | 3.0 | 7.0 | 0.00 | 0.00 | 0.00 | 75 | 1015.0 |
| 20260905203016 | 89 | 23 | 4.0 | 9.0 | 0.00 | 0.00 | 0.00 | 74 | 1015.2 |
| 20260905202516 | 89 | 23 | 3.0 | 10.0 | 0.00 | 0.00 | 0.00 | 76 | 1015.2 |
| 20260905202016 | 89 | 0 | 1.0 | 7.0 | 0.00 | 0.00 | 0.00 | 76 | 1015.2 |
| 20260905201517 | 89 | 45 | 4.0 | 9.0 | 0.00 | 0.00 | 0.00 | 75 | 1015.1 |
| 20260905201017 | 89 | 45 | 3.0 | 7.0 | 0.00 | 0.00 | 0.00 | 74 | 1015.0 |
| 20260905200536 | 90 | 23 | 1.0 | 4.0 | 0.00 | 0.00 | 0.00 | 74 | 1015.0 |
| 20260905200037 | 90 | 23 | 3.0 | 10.0 | 0.00 | 0.00 | 0.00 | 73 | 1015.1 |
| 20260905195516 | 90 | 338 | 1.0 | 6.0 | 0.00 | 0.00 | 0.00 | 75 | 1015.1 |
| 20260905195016 | 90 | 23 | 4.0 | 8.0 | 0.00 | 0.00 | 0.00 | 74 | 1015.1 |
| 20260905194516 | 90 | 45 | 3.0 | 6.0 | 0.00 | 0.00 | 0.00 | 74 | 1015.3 |
| 20260905194017 | 90 | 45 | 2.0 | 7.0 | 0.00 | 0.00 | 0.00 | 76 | 1015.1 |
| 20260905193536 | 89 | 45 | 4.0 | 11.0 | 0.00 | 0.00 | 0.00 | 76 | 1015.4 |
| 20260905193016 | 89 | 45 | 3.0 | 8.0 | 0.00 | 0.00 | 0.00 | 76 | 1015.6 |
| 20260905192516 | 88 | 45 | 4.0 | 7.0 | 0.00 | 0.00 | 0.00 | 76 | 1015.7 |
| 20260905192016 | 88 | 23 | 3.0 | 7.0 | 0.00 | 0.00 | 0.00 | 77 | 1015.7 |
| 20260905191516 | 88 | 45 | 4.0 | 9.0 | 0.00 | 0.00 | 0.00 | 77 | 1015.7 |
| 20260905191016 | 89 | 45 | 3.0 | 8.0 | 0.00 | 0.00 | 0.00 | 77 | 1015.7 |
| 20260905190517 | 88 | 45 | 4.0 | 10.0 | 0.00 | 0.00 | 0.00 | 77 | 1015.7 |
| 20260905190016 | 89 | 45 | 3.0 | 6.0 | 0.00 | 0.00 | 0.00 | 76 | 1015.7 |
| 20260905185516 | 89 | 45 | 4.0 | 7.0 | 0.00 | 0.00 | 0.00 | 76 | 1015.6 |
| 20260905185016 | 89 | 45 | 3.0 | 6.0 | 0.00 | 0.00 | 0.00 | 76 | 1015.6 |
| 20260905184516 | 89 | 45 | 3.0 | 7.0 | 0.00 | 0.00 | 0.00 | 76 | 1015.8 |
| 20260905184016 | 89 | 45 | 4.0 | 8.0 | 0.00 | 0.00 | 0.00 | 77 | 1015.8 |
| 20260905183516 | 89 | 23 | 3.0 | 9.0 | 0.00 | 0.00 | 0.00 | 76 | 1015.8 |
| 20260905183017 | 89 | 23 | 1.0 | 4.0 | 0.00 | 0.00 | 0.00 | 76 | 1015.7 |
| 20260905182516 | 89 | 45 | 1.0 | 5.0 | 0.00 | 0.00 | 0.00 | 77 | 1015.8 |
| 20260905182036 | 89 | 68 | 2.0 | 7.0 | 0.00 | 0.00 | 0.00 | 76 | 1015.7 |
| 20260905181517 | 89 | 90 | 2.0 | 5.0 | 0.00 | 0.00 | 0.00 | 76 | 1015.6 |
| 20260905181016 | 89 | 68 | 2.0 | 7.0 | 0.00 | 0.00 | 0.00 | 75 | 1015.7 |
| 20260905180517 | 89 | 45 | 3.0 | 8.0 | 0.00 | 0.00 | 0.00 | 77 | 1015.8 |
| 20260905180036 | 88 | 45 | 1.0 | 5.0 | 0.00 | 0.00 | 0.00 | 77 | 1015.7 |
| 20260905175517 | 88 | 45 | 3.0 | 7.0 | 0.00 | 0.00 | 0.00 | 77 | 1015.7 |
| 20260905175016 | 88 | 45 | 2.0 | 5.0 | 0.00 | 0.00 | 0.00 | 78 | 1015.6 |
| 20260905174516 | 88 | 45 | 3.0 | 6.0 | 0.00 | 0.00 | 0.00 | 78 | 1015.7 |
| 20260905174036 | 88 | 45 | 4.0 | 9.0 | 0.00 | 0.00 | 0.00 | 78 | 1015.7 |
| 20260905173516 | 88 | 45 | 2.0 | 7.0 | 0.00 | 0.00 | 0.00 | 77 | 1015.6 |
| 20260905173036 | 88 | 23 | 2.0 | 4.0 | 0.00 | 0.00 | 0.00 | 77 | 1015.7 |
| 20260905172516 | 88 | 23 | 3.0 | 6.0 | 0.00 | 0.00 | 0.00 | 77 | 1015.7 |
| 20260905172036 | 87 | 68 | 3.0 | 8.0 | 0.00 | 0.00 | 0.00 | 78 | 1015.8 |
| 20260905171516 | 87 | 68 | 4.0 | 8.0 | 0.00 | 0.00 | 0.00 | 77 | 1015.8 |
| 20260905171036 | 88 | 68 | 3.0 | 7.0 | 0.00 | 0.00 | 0.00 | 77 | 1015.8 |
| 20260905170516 | 87 | 23 | 2.0 | 5.0 | 0.00 | 0.00 | 0.00 | 78 | 1015.9 |
| 20260905170016 | 87 | 45 | 3.0 | 8.0 | 0.00 | 0.00 | 0.00 | 78 | 1016.0 |
| 20260905165516 | 87 | 45 | 2.0 | 5.0 | 0.00 | 0.00 | 0.00 | 78 | 1015.9 |
| 20260905165016 | 87 | 45 | 3.0 | 7.0 | 0.00 | 0.00 | 0.00 | 77 | 1016.0 |
| 20260905164516 | 87 | 45 | 3.0 | 8.0 | 0.00 | 0.00 | 0.00 | 77 | 1016.1 |
| 20260905164016 | 87 | 45 | 4.0 | 8.0 | 0.00 | 0.00 | 0.00 | 78 | 1016.1 |
| 20260905163516 | 87 | 45 | 4.0 | 8.0 | 0.00 | 0.00 | 0.00 | 79 | 1016.0 |
| 20260905163016 | 87 | 68 | 2.0 | 5.0 | 0.00 | 0.00 | 0.00 | 79 | 1016.1 |
| 20260905162516 | 86 | 45 | 4.0 | 10.0 | 0.00 | 0.00 | 0.00 | 78 | 1016.1 |
| 20260905162017 | 86 | 45 | 4.0 | 8.0 | 0.00 | 0.00 | 0.00 | 78 | 1016.2 |
| 20260905161516 | 86 | 45 | 4.0 | 10.0 | 0.00 | 0.00 | 0.00 | 78 | 1016.1 |